Weather History for Altus AFB, OK

Change the Weather History Date:

Thursday, January 10, 2013

  Actual Average Record
Temperature  
Mean Temperature 46 °F -  
Max Temperature 52 °F 48 °F 69 °F (2000)
Min Temperature 41 °F 26 °F 17 °F (1999)
Degree Days  
Heating Degree Days 18    
Moisture  
Dew Point 48 °F    
Average Humidity 99    
Maximum Humidity 100    
Minimum Humidity 87    
Precipitation  
Precipitation 0.15 in - - ()
Sea Level Pressure  
Sea Level Pressure 29.91 in    
Wind  
Wind Speed 12 mph (NNE)    
Max Wind Speed 18 mph    
Max Gust Speed -    
Visibility 7 miles    
Events Rain    
Averages and records for this station are not official NWS values.
T = Trace of Precipitation, MM = Missing Value Source: NWS Daily Summary

Daily Weather History Graph

Daily Weather History Graph

Search for Another Location

Airport:

Trip Planner

Search our weather history database for the weather conditions in past years. The results will help you decide how hot, cold, wet, or windy it might be!

Date:

Astronomy

Jan. 10, 2013 Rise Set
Actual Time 7:44 AM CST 5:45 PM CST
Civil Twilight 7:17 AM CST 6:12 PM CST
Nautical Twilight 6:45 AM CST 6:43 PM CST
Astronomical Twilight 6:15 AM CST 7:14 PM CST
Moon 6:26 AM CST (1/10) 4:54 PM CST (1/10)
Length of Visible Light 10h 55m
Length of Day
10h 00m
Waning Crescent, 2% of the Moon is Illuminated
Jan 10
Waning Crescent
Jan 11
New
Jan 18
First Quarter
Jan 26
Full
Feb 3
Last Quarter

Hourly Weather History & Observations

Time (CST) Temp. Windchill Dew Point Humidity Pressure Visibility Wind Dir Wind Speed Gust Speed Precip Events Conditions
12:20 AM 46.4 °F 39.5 °F 46.4 °F 100% 30.04 in 8.0 mi NE 17.3 mph - N/A Rain Light Rain
12:35 AM 46.4 °F 40.1 °F 46.4 °F 100% 30.03 in 7.0 mi NE 15.0 mph - N/A Rain Light Rain
12:55 AM 46.4 °F 39.8 °F 46.4 °F 100% 30.02 in 6.0 mi NE 16.1 mph - 0.03 in Rain Light Rain
1:11 AM 46.4 °F 40.1 °F 46.4 °F 100% 30.01 in 7.0 mi NE 15.0 mph - N/A Rain Light Rain
1:19 AM 46.4 °F 40.1 °F 46.4 °F 100% 30.00 in 4.0 mi NE 15.0 mph - N/A Rain Light Rain
1:23 AM 46.4 °F 39.8 °F 46.4 °F 100% 30.00 in 4.0 mi NE 16.1 mph - N/A Rain Light Rain
1:44 AM 46.4 °F 39.2 °F 46.4 °F 100% 29.98 in 4.0 mi NE 18.4 mph - N/A Rain Light Rain
1:55 AM 46.6 °F - 46.6 °F 100% 29.98 in 5.0 mi NE 16.1 mph - 0.01 in Rain Light Rain
2:13 AM 46.4 °F 40.4 °F 46.4 °F 100% 29.98 in 5.0 mi NE 13.8 mph - N/A Rain Light Rain
2:24 AM 46.4 °F 40.7 °F 46.4 °F 100% 29.97 in 2.5 mi NE 12.7 mph - N/A Rain Heavy Rain
2:25 AM 46.4 °F 40.7 °F 46.4 °F 100% 29.97 in 2.5 mi NE 12.7 mph - N/A Rain Heavy Rain
2:28 AM 46.4 °F 41.5 °F 46.4 °F 100% 29.97 in 3.0 mi NE 10.4 mph - N/A Rain Light Rain
2:44 AM 46.4 °F 40.7 °F 46.4 °F 100% 29.97 in 7.0 mi NE 12.7 mph - N/A   Light Drizzle
2:55 AM 46.9 °F - 46.9 °F 100% 29.98 in 4.0 mi NE 15.0 mph - 0.07 in Rain Rain
3:13 AM 48.2 °F - 48.2 °F 100% 29.97 in 9.0 mi NE 12.7 mph - N/A Rain Light Rain
3:23 AM 48.2 °F - 48.2 °F 100% 29.96 in 10.0 mi NE 12.7 mph - N/A Rain Light Rain
3:55 AM 47.8 °F - 47.8 °F 100% 29.96 in 10.0 mi NNE 5.8 mph - 0.03 in   Light Drizzle
3:59 AM 48.2 °F - 48.2 °F 100% 29.96 in 10.0 mi NNE 5.8 mph - N/A   Light Drizzle
4:10 AM 48.2 °F - 48.2 °F 100% 29.95 in 10.0 mi NNE 8.1 mph - N/A   Overcast
4:30 AM 48.2 °F - 48.2 °F 100% 29.95 in 10.0 mi North 6.9 mph - N/A   Overcast
4:37 AM 48.2 °F - 48.2 °F 100% 29.94 in 10.0 mi NNE 9.2 mph - N/A   Overcast
4:40 AM 48.2 °F - 48.2 °F 100% 29.94 in 10.0 mi NNE 8.1 mph - N/A   Overcast
4:55 AM 47.3 °F - 47.3 °F 100% 29.94 in 10.0 mi NNE 6.9 mph - 0.00 in   Overcast
5:15 AM 48.2 °F - 48.2 °F 100% 29.93 in 8.0 mi North 6.9 mph - N/A   Overcast
5:17 AM 48.2 °F - 48.2 °F 100% 29.93 in 8.0 mi North 6.9 mph - N/A   Overcast
5:24 AM 48.2 °F - 48.2 °F 100% 29.92 in 7.0 mi North 5.8 mph - N/A   Overcast
5:55 AM 47.7 °F - 47.7 °F 100% 29.91 in 10.0 mi NE 9.2 mph - N/A   Overcast
5:57 AM 48.2 °F - 48.2 °F 100% 29.91 in 9.0 mi NE 8.1 mph - N/A   Overcast
6:03 AM 48.2 °F - 48.2 °F 100% 29.91 in 8.0 mi NE 9.2 mph - N/A   Overcast
6:08 AM 48.2 °F - 48.2 °F 100% 29.91 in 7.0 mi NE 9.2 mph - N/A   Overcast
6:55 AM 47.3 °F - 47.3 °F 100% 29.91 in 4.0 mi NNE 10.4 mph - N/A   Overcast
7:05 AM 48.2 °F - 48.2 °F 100% 29.91 in 4.0 mi NNE 10.4 mph - N/A   Overcast
7:25 AM 48.2 °F - 48.2 °F 100% 29.91 in 3.0 mi NE 11.5 mph - N/A   Overcast
7:26 AM 48.2 °F - 48.2 °F 100% 29.90 in 2.5 mi NE 10.4 mph - N/A   Overcast
7:36 AM 48.2 °F - 48.2 °F 100% 29.90 in 3.0 mi NE 12.7 mph - N/A   Overcast
7:55 AM 47.3 °F - 47.3 °F 100% 29.91 in 2.5 mi NE 11.5 mph - N/A   Overcast
7:59 AM 48.2 °F - 48.2 °F 100% 29.90 in 1.8 mi NNE 11.5 mph - N/A   Overcast
8:04 AM 48.2 °F - 48.2 °F 100% 29.90 in 1.2 mi NNE 12.7 mph - N/A   Overcast
8:14 AM 46.4 °F 41.5 °F 46.4 °F 100% 29.90 in 1.0 mi NNE 10.4 mph - N/A   Overcast
8:28 AM 48.2 °F - 48.2 °F 100% 29.90 in 0.8 mi NE 9.2 mph - N/A   Overcast
8:40 AM 48.2 °F - 48.2 °F 100% 29.90 in 0.8 mi NE 8.1 mph - N/A   Light Drizzle
8:45 AM 48.2 °F - 48.2 °F 100% 29.89 in 1.0 mi NNE 9.2 mph - N/A   Light Drizzle
8:55 AM 47.5 °F - 47.5 °F 100% 29.90 in 1.0 mi NE 10.4 mph - 0.00 in   Light Drizzle
9:03 AM 48.2 °F - 48.2 °F 100% 29.90 in 1.5 mi NNE 11.5 mph - N/A Rain Light Rain
9:19 AM 48.2 °F - 48.2 °F 100% 29.89 in 2.0 mi NNE 9.2 mph - N/A   Light Drizzle
9:27 AM 48.2 °F - 48.2 °F 100% 29.88 in 2.5 mi North 10.4 mph - N/A   Overcast
9:30 AM 48.2 °F - 48.2 °F 100% 29.89 in 3.0 mi North 10.4 mph - N/A   Overcast
9:47 AM 48.2 °F - 48.2 °F 100% 29.89 in 4.0 mi NNE 10.4 mph - N/A   Overcast
9:55 AM 47.8 °F - 47.8 °F 100% 29.89 in 4.0 mi NNE 10.4 mph - 0.00 in   Overcast
10:00 AM 48.2 °F - 48.2 °F 100% 29.89 in 2.5 mi NNE 9.2 mph - N/A   Overcast
10:22 AM 48.2 °F - 48.2 °F 100% 29.90 in 2.0 mi NE 6.9 mph - N/A   Overcast
10:55 AM 47.8 °F - 47.8 °F 100% 29.90 in 2.5 mi NNW 6.9 mph - N/A   Overcast
11:05 AM 48.2 °F - 48.2 °F 100% 29.89 in 3.0 mi North 8.1 mph - N/A Rain Light Rain
11:15 AM 48.2 °F - 48.2 °F 100% 29.89 in 4.0 mi North 6.9 mph - N/A Rain Light Rain
11:55 AM 49.6 °F - 49.6 °F 100% 29.87 in 10.0 mi NW 10.4 mph - 0.01 in   Light Drizzle
11:57 AM 50.0 °F - 50.0 °F 100% 29.87 in 10.0 mi NW 8.1 mph - N/A   Overcast
11:58 AM 50.0 °F - 50.0 °F 100% 29.87 in 10.0 mi NW 8.1 mph - N/A   Overcast
12:45 PM 50.0 °F - 50.0 °F 100% 29.85 in 10.0 mi NNW 8.1 mph - N/A   Overcast
12:47 PM 50.0 °F - 50.0 °F 100% 29.85 in 10.0 mi NNW 8.1 mph - N/A   Light Drizzle
12:55 PM 50.4 °F - 50.4 °F 100% 29.85 in 10.0 mi NNW 6.9 mph - 0.00 in   Light Drizzle
1:10 PM 50.0 °F - 50.0 °F 100% 29.83 in 10.0 mi WNW 8.1 mph - N/A   Overcast
1:55 PM 50.0 °F - 50.0 °F 100% 29.84 in 10.0 mi West 11.5 mph - 0.00 in   Overcast
2:15 PM 50.0 °F - 50.0 °F 100% 29.84 in 10.0 mi West 10.4 mph - N/A   Overcast
2:55 PM 49.6 °F - 49.6 °F 100% 29.85 in 10.0 mi West 10.4 mph - N/A   Overcast
3:19 PM 50.0 °F - 50.0 °F 100% 29.86 in 10.0 mi West 10.4 mph - N/A   Overcast
3:31 PM 51.8 °F - 50.0 °F 94% 29.85 in 10.0 mi West 10.4 mph - N/A   Mostly Cloudy
3:34 PM 51.8 °F - 50.0 °F 94% 29.85 in 10.0 mi WNW 9.2 mph - N/A   Mostly Cloudy
3:46 PM 51.8 °F - 48.2 °F 88% 29.84 in 10.0 mi NW 8.1 mph - N/A   Scattered Clouds
3:55 PM 52.2 °F - 48.9 °F 89% 29.83 in 10.0 mi NW 8.1 mph - N/A   Scattered Clouds
4:55 PM 51.8 °F - 48.0 °F 87% 29.86 in 10.0 mi West 9.2 mph - N/A   Clear
5:40 PM 48.2 °F - 48.2 °F 100% 29.86 in 10.0 mi South 5.8 mph - N/A   Mostly Cloudy
5:55 PM 49.3 °F - 48.9 °F 99% 29.85 in 10.0 mi South 5.8 mph - N/A   Mostly Cloudy
5:58 PM 50.0 °F - 48.2 °F 94% 29.85 in 10.0 mi South 6.9 mph - N/A   Overcast
6:55 PM 48.7 °F - 48.4 °F 99% 29.85 in 10.0 mi SSE 6.9 mph - N/A   Overcast
7:05 PM 46.4 °F 42.9 °F 46.4 °F 100% 29.85 in 10.0 mi SSE 6.9 mph - N/A   Scattered Clouds
7:55 PM 45.0 °F 41.2 °F 45.0 °F 100% 29.84 in 10.0 mi SE 6.9 mph - N/A   Clear
8:55 PM 44.2 °F 39.7 °F 44.2 °F 100% 29.85 in 10.0 mi South 8.1 mph - N/A   Clear
9:55 PM 43.2 °F 38.4 °F 43.2 °F 100% 29.86 in 10.0 mi South 8.1 mph - N/A   Clear
10:55 PM 41.9 °F 37.5 °F 41.9 °F 100% 29.84 in 8.0 mi SSE 6.9 mph - N/A   Clear
11:55 PM 42.4 °F 37.5 °F 42.4 °F 100% 29.83 in 10.0 mi SSE 8.1 mph - N/A   Clear